FW9789 Weather Reports


time (UTC)temp
C
wind
direction
speed
KPH
gust
KPH
rain 1hr
cm
rain 24hr
cm
rain mn
cm
humidity
%
barometer
mb
20260506092006 6 225 3.2 12.9 0.00 2.62 2.62 17 1014.2
20260506091006 6 225 8.0 24.1 0.00 2.62 2.62 17 1014.3
20260506085006 6 45 3.2 20.9 0.00 2.62 2.62 17 1014.1
20260506084006 6 45 4.8 14.5 0.00 2.62 2.62 17 1013.9
20260506083006 6 225 3.2 9.7 0.00 2.62 2.62 17 1013.8
20260506082005 6 135 1.6 12.9 0.00 2.62 2.62 17 1013.8
20260506081006 6 270 1.6 11.3 0.00 2.62 2.62 17 1013.5
20260506073006 7 270 1.6 12.9 0.00 2.62 2.62 17 1013.0
20260506072006 7 135 3.2 9.7 0.00 2.62 2.62 17 1012.8
20260506071006 8 225 3.2 11.3 0.00 2.62 2.62 17 1012.6
20260506062006 6 180 1.6 9.7 0.00 2.62 2.62 17 1011.9
20260506061006 7 90 1.6 9.7 0.00 2.62 2.62 17 1011.7
20260506051005 7 45 3.2 9.7 2.13 2.62 2.62 17 1010.8
20260506045006 6 0 4.8 16.1 2.13 2.62 2.62 17 1010.5
20260506044006 6 90 4.8 16.1 2.13 2.62 2.62 17 1010.4
20260506035005 5 45 3.2 20.9 0.00 2.62 2.62 17 1010.1
20260506034006 5 0 4.8 19.3 0.00 2.62 2.62 17 1009.7
20260506033006 4 270 4.8 19.3 0.00 2.62 2.62 17 1009.7
20260506032005 4 45 6.4 14.5 0.00 2.62 2.62 17 1009.7
20260506025006 3 45 8.0 20.9 0.00 2.62 2.62 17 1009.6
20260506024006 3 45 8.0 19.3 0.00 2.62 2.62 17 1009.6
20260506023005 3 45 4.8 20.9 0.00 2.62 2.62 17 1009.6
20260506022005 3 0 8.0 20.9 0.00 2.62 2.62 17 1009.4
20260506021005 3 45 9.7 16.1 0.00 2.62 2.62 17 1009.5
20260506015005 3 45 8.0 20.9 0.00 2.62 2.62 17 1009.2
20260506014005 3 90 9.7 22.5 0.00 2.62 2.62 17 1009.3
20260506013006 3 90 9.7 19.3 0.00 2.62 2.62 17 1009.1
20260506011006 3 0 6.4 16.1 2.13 2.62 2.62 17 1008.9
20260506004011 3 90 4.8 14.5 2.13 2.62 2.62 17 1008.9
20260506003005 6 90 6.4 14.5 2.13 2.62 2.62 17 1007.5
20260506002005 3 135 6.4 11.3 0.00 2.62 2.62 17 1008.7
20260505235006 3 90 9.7 20.9 0.00 2.62 2.62 17 1008.3
20260505234006 4 0 6.4 16.1 0.00 2.62 2.62 17 1008.3
20260505233006 4 45 4.8 16.1 0.00 2.62 2.62 17 1008.3
20260505232006 4 90 4.8 16.1 0.00 2.62 2.62 17 1008.3
20260505225006 3 45 4.8 16.1 0.00 2.62 2.62 17 1008.3
20260505224006 3 45 4.8 11.3 0.00 2.62 2.62 17 1008.2
20260505223006 3 90 1.6 9.7 0.00 2.62 2.62 17 1008.1
20260505222005 3 135 1.6 16.1 0.00 2.62 2.62 17 1008.2
20260505221006 4 45 4.8 16.1 0.00 2.62 2.62 17 1008.1
20260505215006 5 45 8.0 16.1 0.00 2.62 2.62 17 1008.2
20260505214006 5 90 9.7 24.1 0.00 2.62 2.62 17 1008.2
20260505213005 4 135 8.0 16.1 0.00 2.62 2.62 17 1008.0
20260505212005 3 0 1.6 12.9 0.00 2.62 2.62 17 1008.1
20260505205006 3 90 1.6 9.7 0.00 2.62 2.62 17 1007.7
20260505204006 3 45 1.6 8.0 0.00 2.62 2.62 17 1007.7
20260505203006 3 90 3.2 8.0 0.00 2.62 2.62 17 1007.7
20260505202005 3 45 0.0 11.3 0.00 2.62 2.62 17 1007.5
20260505194006 3 45 1.6 8.0 0.00 2.62 2.62 17 1007.5
20260505193011 3 45 0.0 3.2 0.00 2.62 2.62 17 1007.3
20260505192006 3 225 0.0 4.8 0.00 2.62 2.62 17 1007.3
20260505184006 5 90 0.0 4.8 0.00 2.62 2.62 17 1007.0
20260505182006 6 90 1.6 4.8 2.13 2.62 2.62 17 1006.9
20260505181006 6 90 1.6 4.8 2.13 2.62 2.62 17 1006.8
20260505175005 6 225 1.6 11.3 2.13 2.62 2.62 17 1006.6
20260505174006 7 90 3.2 19.3 2.13 2.62 2.62 17 1006.4
20260505173006 1 270 4.8 19.3 2.13 2.62 2.62 17 1007.9
20260505171007 6 225 4.8 16.1 0.00 2.62 2.62 17 1006.3
20260505165005 8 0 4.8 12.9 0.00 2.62 2.62 17 1006.4
20260505163007 6 45 9.7 19.3 0.00 2.62 2.62 17 1006.2
20260505161006 7 270 4.8 16.1 2.13 2.62 2.62 17 1005.9
20260505152006 9 270 8.0 20.9 0.00 2.62 2.59 17 1005.7
20260505151007 9 180 8.0 16.1 0.00 2.62 2.59 17 1005.6
20260505125006 9 0 9.7 24.1 0.00 2.59 2.59 17 1003.8
20260505124006 9 0 9.7 24.1 0.00 2.59 2.59 17 1003.3
20260505123006 9 270 9.7 24.1 0.00 2.59 2.59 17 1003.0
20260505115006 9 0 8.0 20.9 0.00 2.59 2.59 17 1004.4
20260505114007 9 90 8.0 19.3 0.00 2.59 2.59 17 1004.4
20260505112006 8 135 8.0 19.3 0.00 2.62 2.59 17 1004.0
20260505111006 8 292 8.0 20.9 0.00 2.62 2.59 17 1003.9
20260505102006 9 270 3.2 16.1 0.00 2.62 2.59 17 1003.6
20260505095006 9 225 3.2 12.9 0.00 2.62 2.59 17 1003.6
20260505094006 8 0 3.2 12.9 0.00 2.62 2.59 17 1003.4
20260505093006 8 270 1.6 12.9 0.00 2.62 2.59 17 1003.4